This demonstration page uses our WeatherBlox Daily Observations layout. Learn more.

Left ArrowRight Arrow

Hourly Observations for November 21, 2020

Temp ( °F °C ) Dew Point ( °F °C ) Humidity (%) Winds ( mph kmh ) Pressure ( in mb ) Visibility ( mi km ) Precip ( " mm )
12:54 am 00:54 Cloudy 37 2.8 31 -0.6 79 79 N 6 9 30.53 1034 10 16.0934 0 0
1:54 am 01:54 Mostly Clear 39 3.9 32 0 76 76 N 8 13 30.54 1034 10 16.0934 0 0
2:54 am 02:54 Clear 38 3.3 32 0 79 79 N 6 9 30.55 1034 10 16.0934 0 0
3:54 am 03:54 Clear 36 2.2 31 -0.6 82 82 NNE 5 7 30.53 1034 9 14.48406 0 0
4:54 am 04:54 Clear 36 2.2 31 -0.6 82 82 N 6 9 30.55 1035 8 12.87472 0 0
5:54 am 05:54 Partly Cloudy 36 2.2 32 0 86 86 Calm 30.56 1035 7 11.26538 0 0
6:54 am 06:54 Mostly Clear 37 2.8 32 0 82 82 NNE 5 7 30.56 1035 8 12.87472 0 0
7:54 am 07:54 Mostly Cloudy 37 2.8 32 0 82 82 Calm 30.56 1035 7 11.26538 0 0
8:54 am 08:54 Sunny 39 3.9 33 0.6 79 79 ENE 7 11 30.55 1035 7 11.26538 0 0
9:54 am 09:54 Sunny 42 5.6 33 0.6 71 71 undefined N/A 30.53 1034 8 12.87472 0 0
10:54 am 10:54 Mostly Cloudy 44 6.7 33 0.6 65 65 E 7 11 30.53 1034 8 12.87472 0 0
11:54 am 11:54 Mostly Cloudy 46 7.8 31 -0.6 56 56 ESE 8 13 30.5 1033 10 16.0934 0 0
12:54 pm 12:54 Mostly Sunny 47 8.3 30 -1.1 52 52 E 8 13 30.47 1032 10 16.0934 0 0
1:54 pm 13:54 Mostly Cloudy 48 8.9 29 -1.7 48 48 ESE 6 9 30.44 1031 10 16.0934 0 0
2:54 pm 14:54 Cloudy 48 8.9 29 -1.7 48 48 SE 7 11 30.42 1030 10 16.0934 0 0
3:54 pm 15:54 Cloudy 47 8.3 29 -1.7 50 50 SE 6 9 30.42 1030 10 16.0934 0 0
4:54 pm 16:54 Cloudy with Light Rain 44 6.7 34 1.1 68 68 SSE 3 6 30.41 1030 10 16.0934 0.001 0.001
5:54 pm 17:54 Cloudy with Light Rain 44 6.7 36 2.2 73 73 S 3 6 30.41 1030 10 16.0934 0.001 0.001
6:54 pm 18:54 Cloudy 42 5.6 35 1.7 76 76 Calm 30.4 1029 10 16.0934 0.01 0.254
7:54 pm 19:54 Cloudy 43 6.1 34 1.1 71 71 Calm 30.38 1029 10 16.0934 0 0
8:54 pm 20:54 Cloudy 41 5 36 2.2 82 82 Calm 30.37 1029 10 16.0934 0 0
9:54 pm 21:54 Cloudy 42 5.6 35 1.7 76 76 NW 5 7 30.39 1029 10 16.0934 0 0
10:54 pm 22:54 Cloudy with Light Rain 42 5.6 35 1.7 76 76 NW 3 6 30.39 1029 10 16.0934 0.001 0.001
11:54 pm 23:54 Cloudy 40 4.4 37 2.8 89 89 Calm 30.38 1029 10 16.0934 0.001 0.001

Powered by AerisWeather